Location: Home
(42.5358°N, 72.7383°W)
Time: 06:06:42
(UTC-04:00)

COSMOS 2251 DEB - Pass Details

Date: 02 July 2022
Orbit: 769 x 1233 km, 74.1° (Epoch: 15 August)

Event Time Altitude Azimuth Distance (km) Brightness Sun altitude
Exits shadow 02:18:48 42° 205° (SSW) 1,305 ? -21.6°
Maximum altitude 02:21:00 84° 289° (WNW) 981 ? -21.5°
Drops below altitude 10° 02:27:45 10° 19° (NNE) 2,898 ? -21.0°
Sets 02:30:32 0° 20° (NNE) 3,925 ? -20.8°
